WB2IFS-13 Weather Reports


time (UTC)temp
F
wind
direction
speed
knots
gust
knots
rain 1hr
in
rain 24hr
in
rain mn
in
humidity
%
barometer
mb
20260510191459 84 307 1.7 7.0 0.00 0.00 0.00 39 1013.8
20260510190000 83 131 1.7 7.8 0.00 0.00 0.00 40 1013.7
20260510184459 84 170 1.7 7.8 0.00 0.00 0.00 40 1013.8
20260510182959 84 187 1.7 6.1 0.00 0.00 0.00 42 1013.9
20260510181459 84 146 1.7 4.3 0.00 0.00 0.00 43 1014.0
20260510180002 83 127 1.7 4.3 0.00 0.00 0.00 41 1014.0
20260510174500 83 98 1.7 3.5 0.00 0.00 0.00 46 1014.1
20260510173001 83 70 0.9 4.3 0.00 0.00 0.00 42 1014.2
20260510171500 82 214 0.9 2.6 0.00 0.00 0.00 44 1014.2
20260510170002 81 120 1.7 7.0 0.00 0.00 0.00 45 1014.3
20260510164500 82 212 0.9 3.5 0.00 0.00 0.00 44 1014.6
20260510163000 81 123 0.9 3.5 0.00 0.00 0.00 44 1014.7
20260510161458 81 50 0.9 2.6 0.00 0.00 0.00 49 1014.6
20260510155959 80 270 1.7 5.2 0.00 0.00 0.00 48 1014.7
20260510154459 79 115 0.9 3.5 0.00 0.00 0.00 49 1014.8
20260510152959 79 302 0.9 2.6 0.00 0.00 0.00 49 1014.8
20260510151458 78 77 0.9 3.5 0.00 0.00 0.00 49 1014.8
20260510150004 78 66 0.9 3.5 0.00 0.00 0.00 53 1014.6
20260510144458 77 165 0.9 1.7 0.00 0.00 0.00 51 1014.2
20260510142959 76 70 0.9 2.6 0.00 0.00 0.00 55 1013.9
20260510141459 74 34 0.9 4.3 0.00 0.00 0.00 59 1013.9
20260510140001 71 300 0.9 2.6 0.00 0.00 0.00 67 1014.1
20260510134459 69 150 0.0 0.9 0.00 0.00 0.00 73 1014.1
20260510132959 66 176 0.0 2.6 0.00 0.00 0.00 77 1014.2
20260510131458 64 122 0.0 0.9 0.00 0.00 0.00 84 1014.4
20260510125959 62 277 0.0 1.7 0.00 0.00 0.00 87 1014.6
20260510124459 60 273 0.0 0.9 0.00 0.00 0.00 92 1014.7
20260510123000 58 252 0.0 1.7 0.00 0.00 0.00 98 1014.7
20260510121459 56 240 0.0 0.9 0.00 0.00 0.00 98 1014.4
20260510120001 54 141 0.0 0.0 0.00 0.00 0.00 98 1014.2
20260510114458 53 141 0.0 0.0 0.00 0.00 0.00 98 1014.0
20260510112959 52 141 0.0 0.0 0.00 0.00 0.00 98 1013.8
20260510111459 52 141 0.0 0.0 0.00 0.00 0.00 98 1013.5
20260510110001 51 141 0.0 0.0 0.00 0.00 0.00 97 1013.3
20260510104459 51 141 0.0 0.0 0.00 0.00 0.00 97 1013.0
20260510103000 51 141 0.0 0.0 0.00 0.00 0.00 97 1013.0
20260510101458 51 141 0.0 0.0 0.00 0.00 0.00 97 1012.7
20260510095959 51 141 0.0 0.0 0.00 0.00 0.00 96 1012.6
20260510094459 52 141 0.0 0.0 0.00 0.00 0.00 96 1012.5
20260510092958 52 141 0.0 0.0 0.00 0.00 0.00 97 1012.6
20260510091459 52 141 0.0 0.9 0.00 0.00 0.00 96 1012.5
20260510085959 52 141 0.0 0.9 0.00 0.00 0.00 96 1012.2
20260510084459 53 141 0.0 0.0 0.00 0.00 0.00 96 1012.3
20260510082958 53 141 0.0 0.9 0.00 0.00 0.00 96 1011.9
20260510081459 53 141 0.0 0.0 0.00 0.00 0.00 96 1011.8
20260510080000 53 141 0.0 0.0 0.00 0.00 0.00 95 1011.7
20260510074458 54 141 0.0 0.0 0.00 0.00 0.00 95 1011.6
20260510073000 54 141 0.0 0.0 0.00 0.00 0.00 94 1011.3
20260510071458 55 141 0.0 0.0 0.00 0.00 0.00 94 1011.4
20260510065959 55 141 0.0 0.0 0.00 0.00 0.00 93 1011.1
20260510064459 55 141 0.0 0.0 0.00 0.00 0.00 94 1011.2
20260510063003 55 141 0.0 0.0 0.00 0.00 0.00 93 1011.2
20260510061500 55 141 0.0 0.9 0.00 0.00 0.00 93 1011.2
20260510055959 55 141 0.0 0.0 0.00 0.00 0.00 94 1011.1
20260510054500 55 141 0.0 0.0 0.00 0.00 0.00 93 1011.2
20260510053000 56 141 0.0 0.0 0.00 0.00 0.00 93 1011.2
20260510051459 56 141 0.0 0.0 0.00 0.00 0.00 93 1011.2
20260510050001 56 141 0.0 0.0 0.00 0.00 0.00 92 1011.4
20260510044500 56 141 0.0 0.0 0.00 0.00 0.00 92 1011.4
20260510043000 57 141 0.0 0.0 0.00 0.00 0.00 92 1011.6
20260510041500 57 141 0.0 0.0 0.00 0.00 0.00 91 1011.4
20260510040000 58 141 0.0 0.0 0.00 0.00 0.00 90 1011.5
20260510034459 58 141 0.0 0.0 0.00 0.00 0.00 89 1011.3
20260510033000 59 141 0.0 0.0 0.00 0.00 0.00 87 1011.2
20260510031500 60 141 0.0 0.0 0.00 0.00 0.00 86 1011.0
20260510030002 60 141 0.0 0.0 0.00 0.00 0.00 85 1011.0
20260510024459 61 141 0.0 0.0 0.00 0.00 0.00 84 1011.0
20260510022959 62 141 0.0 0.0 0.00 0.00 0.00 83 1010.9
20260510020002 62 141 0.0 0.0 0.00 0.00 0.00 82 1010.6
20260510014459 63 141 0.0 0.9 0.00 0.00 0.00 81 1010.4
20260510012959 63 141 0.0 0.9 0.00 0.00 0.00 80 1010.3
20260510011500 64 141 0.0 0.9 0.00 0.00 0.00 78 1010.2
20260510010001 64 140 0.0 0.9 0.00 0.00 0.00 77 1010.1
20260510004500 65 143 0.0 1.7 0.00 0.00 0.00 76 1010.0
20260510002959 66 136 0.0 0.9 0.00 0.00 0.00 73 1009.9
20260510001500 66 135 0.0 1.7 0.00 0.00 0.00 73 1009.6
20260509235959 67 104 0.0 0.0 0.00 0.00 0.00 70 1009.5
20260509234500 69 103 0.0 0.0 0.00 0.00 0.00 67 1009.4
20260509232959 71 104 0.0 0.0 0.00 0.00 0.00 65 1009.4
20260509231459 72 103 0.0 1.7 0.00 0.00 0.00 59 1009.1
20260509225959 73 150 0.9 3.5 0.00 0.00 0.00 58 1009.2
20260509224459 73 113 0.9 3.5 0.00 0.00 0.00 57 1009.3
20260509222959 74 125 0.9 1.7 0.00 0.00 0.00 56 1009.3
20260509221459 74 176 0.9 3.5 0.00 0.00 0.00 56 1009.4
20260509215959 74 122 0.9 1.7 0.00 0.00 0.00 55 1009.3
20260509214459 76 143 0.9 3.5 0.00 0.00 0.00 53 1009.4
20260509212958 76 151 2.6 7.8 0.00 0.00 0.00 53 1009.4
20260509211459 76 153 1.7 5.2 0.00 0.00 0.00 54 1009.2
20260509210000 76 234 1.7 5.2 0.00 0.00 0.00 54 1009.0
20260509204459 75 51 2.6 5.2 0.00 0.00 0.00 53 1008.9
20260509203000 75 77 1.7 5.2 0.00 0.00 0.00 53 1009.1
20260509201500 76 102 1.7 6.1 0.00 0.00 0.00 54 1009.4
20260509195959 75 217 1.7 5.2 0.00 0.00 0.00 55 1009.5
20260509194459 74 167 1.7 4.3 0.00 0.00 0.00 57 1009.9
20260509192959 73 176 2.6 9.6 0.00 0.00 0.00 55 1010.1